Location: Sternwarte Stuttgart
(48.7670°N, 9.1830°E)
Time: 23:43:56
(UTC+02:00)

Daily predictions for brighter satellites

Satellite Brightness Start Highest point End
(mag) Time Altitude Azimuth Time Altitude Azimuth Time Altitude Azimuth
Cosmos 2154 Rocket 4.0 21:33:36 10° S 21:39:44 65° E 21:45:52 10° NNE
BREEZE-M DEB (TANK) 2.8 21:38:11 10° SW 21:40:45 61° SSE 21:46:51 10° ENE
SPOT 5 3.3 21:38:38 10° SSE 21:43:54 63° ENE 21:49:12 10° N
ATLAS 5 CENTAUR R/B 4.5 21:39:57 10° WNW 21:44:26 22° WSW 21:49:06 10° SSW
Cosmos 1606 3.1 21:41:09 10° NNW 21:45:05 71° W 21:48:59 10° S
ARGOS 3.9 21:42:27 10° SE 21:47:20 37° ENE 21:52:14 10° N
Intercosmos 25 4.1 21:45:27 10° SSE 21:48:13 24° E 21:50:52 10° NE
deb Chang Zheng 4 3.7 21:44:04 10° NNE 21:48:25 56° E 21:52:48 10° S
SPOT 1/Viking Rocket 4.2 21:44:19 10° SE 21:49:11 42° ENE 21:54:06 10° N
Cosmos 1862 3.3 21:46:39 10° S 21:50:43 73° E 21:54:48 10° NNE
Coronas F rocket 4.4 21:49:24 10° WSW 21:51:21 18° WNW 21:53:20 10° NNW
ISS -3.0 21:53:32 10° SW 21:56:39 43° SSE 21:59:45 10° ENE
AVUM R/B 4.5 21:53:32 10° NNW 21:56:47 33° NE 21:59:53 11° ESE
Cosmos 1850 Rocket 4.1 21:52:29 10° NNW 21:57:50 78° ENE 22:03:11 10° SSE
USA 245 3.9 21:56:19 10° SE 21:59:47 44° ENE 22:04:07 10° N
Cosmos 1184 Rocket 2.7 22:02:32 10° S 22:05:51 78° E 22:09:13 10° NNE
H-2A R/B 2.5 22:02:48 10° S 22:07:01 60° WSW 22:11:12 10° NNW
Cosmos 1833 Rocket 2.9 22:03:49 10° NNW 22:09:25 62° ENE 22:14:27 13° SE
Cosmos 1242 Rocket 2.6 22:06:49 10° NNW 22:10:30 85° W 22:14:12 10° S
Cosmos 2151 Rocket 4.4 22:07:19 10° SSE 22:11:22 33° E 22:15:26 10° NNE
MetOp-A 4.2 22:07:31 10° SSE 22:12:53 89° WSW 22:18:17 10° NNW
BREEZE-M DEB 4.4 22:09:56 10° WSW 22:14:11 56° SSE 22:16:56 10° E
Cosmos 1844 Rocket 3.7 22:11:33 10° SW 22:17:03 51° NW 22:22:34 10° NNE
Okean 3 4.2 22:13:54 10° NNW 22:18:05 53° W 22:22:13 10° S
CZ-4C R/B 4.5 22:15:27 14° SE 22:18:23 32° ENE 22:22:09 10° N
Cosmos 2278 Rocket 2.2 22:12:48 10° SSW 22:18:29 89° W 22:24:14 10° NNE
YAOGAN 6 2.5 22:15:25 10° SSE 22:18:52 89° WSW 22:22:26 10° NNW
Cosmos 1741 Rocket 4.2 22:14:03 10° NNW 22:19:18 75° WSW 22:24:24 10° SSE
NOSS 3-1 (C) 4.5 22:12:50 10° NW 22:19:53 52° NE 22:27:29 11° ESE
Cosmos 1408 3.3 22:18:01 10° SSW 22:21:37 55° WNW 22:25:13 10° N
BREEZE-M TANK 3.9 22:05:55 10° W 22:22:50 69° S 22:26:48 10° E
Cosmos 1844 4.4 22:18:56 10° SW 22:24:39 59° WNW 22:30:25 10° NNE
Meteor 2-13 Rocket 4.5 22:19:19 10° S 22:25:30 84° E 22:31:41 10° N
UNK 4.5 22:20:19 10° NNE 22:26:32 66° ESE 22:32:26 10° S
CZ-4 R/B 4.3 22:26:37 10° NNE 22:31:02 40° E 22:34:37 14° SSE
SL-8 R/B 3.7 22:28:13 10° W 22:33:05 88° S 22:37:54 10° E
USA 234 4.5 22:29:01 10° E 22:33:13 18° ESE 22:35:02 16° SE
Cosmos 2082 Rocket 2.3 22:28:55 10° NNW 22:34:37 75° WSW 22:39:22 15° SSE
Cosmos 2218 Rocket 4.1 22:28:52 10° S 22:35:13 69° E 22:41:35 10° NNE
Cosmos 1825 3.7 22:33:49 10° SW 22:37:24 38° WNW 22:41:00 10° N
Envisat 4.4 22:33:41 10° SSW 22:38:18 35° W 22:42:57 10° NNW
Meteor 1-18 Rocket 4.4 22:32:51 10° N 22:38:48 75° ENE 22:43:38 16° SSE
Okean 2 Rocket 3.7 22:38:27 10° SSW 22:42:48 58° WNW 22:47:10 10° N
Cosmos 1727 Rocket 4.0 22:38:33 10° N 22:44:46 77° E 22:49:48 16° SSE
Cosmos 1959 Rocket 4.4 22:40:28 10° S 22:46:35 82° E 22:52:42 10° N
Meteor 2-8 Rocket 4.4 22:42:16 10° N 22:48:28 83° E 22:53:27 17° SSE
Meteor 1-14 Rocket 4.2 22:42:59 10° S 22:48:40 90° E 22:54:16 10° NNE
Okean 1 3.7 22:45:31 10° N 22:49:30 51° ENE 22:51:40 24° SE
APEX 3.9 22:47:04 10° SW 22:51:19 78° WNW 22:56:58 10° NNE
Landsat 7 3.8 22:48:20 20° SSE 22:51:37 76° ENE 22:56:24 10° N
Cosmos 1420 Rocket 4.4 22:46:29 10° SW 22:51:41 64° WNW 22:56:53 10° NNE
SL-08 RB Rocket 3.8 22:49:02 17° S 22:52:35 78° WSW 22:57:17 10° NNW
Cosmos 2297 3.7 22:50:01 10° SSW 22:55:43 88° WNW 23:01:32 10° NNE
Cosmos 1486 Rocket 4.2 22:54:50 10° NNW 23:00:09 64° ENE 23:03:21 24° SE
CZ-4B R/B 3.5 22:59:19 10° NNE 23:04:17 79° WNW 23:09:07 10° SSW
Cosmos 1812 2.6 23:00:37 10° N 23:04:31 89° E 23:06:29 28° S
CARTOSAT-1 3.5 23:04:13 27° SSE 23:06:33 77° ENE 23:10:54 10° N
Cosmos 1339 Rocket 4.5 23:00:27 10° N 23:06:38 88° W 23:11:12 20° S
Terra 1.8 23:04:33 25° SSE 23:07:20 76° ENE 23:12:07 10° N
SL-8 Rocket 4.5 23:02:45 10° SSW 23:08:57 61° WNW 23:15:08 10° N
H-2A R/B 2.1 23:09:17 23° SSE 23:12:47 85° WSW 23:18:05 10° NNW
Meteor 1-11 Rocket 4.4 23:11:42 25° SE 23:14:28 40° E 23:19:47 10° NNE
Cosmos 1536 Rocket 4.3 23:10:33 10° NNW 23:14:54 50° W 23:18:01 18° SSW
Genesis I 4.3 23:17:21 28° ESE 23:17:21 28° ESE 23:20:27 10° ENE
DELTA 2 DEB (DPAF) 4.4 23:14:20 24° S 23:17:00 65° WSW 23:21:28 10° NNW
Cosmos 1821 Rocket 4.5 23:18:28 25° SE 23:21:33 43° E 23:27:22 10° NNE
Gbstr 26 Del rocket 3.3 23:17:25 10° WNW 23:22:26 55° SSW 23:24:01 35° SSE
Cosmos 2084 Rocket 4.0 23:19:53 10° NNW 23:23:37 45° NE 23:25:27 26° E
Spot 4 3.8 23:22:02 30° SSE 23:24:30 84° ENE 23:29:23 10° NNW
Cosmos 2369 Rocket 3.2 23:24:23 25° ESE 23:25:27 26° ESE 23:30:04 10° NE
ARGOS 4.3 23:23:14 13° SSW 23:27:35 37° W 23:32:32 10° NNW
Cosmos 1934 Rocket 4.5 23:28:33 28° SE 23:31:09 42° E 23:36:47 10° NNE
Cosmos 1302 Rocket 4.2 23:28:55 30° SSE 23:31:16 52° ESE 23:36:26 10° NNE
BREEZE-M DEB (TANK) 1.9 23:30:01 10° W 23:32:16 79° N 23:37:25 10° E
Cosmos 1315 Rocket 4.1 23:32:17 23° E 23:32:22 23° E 23:35:32 10° NE
ISS -2.8 23:29:48 10° W 23:33:02 59° NNW 23:36:17 10° ENE
Lacrosse 5 rocket 1.7 23:35:09 38° ESE 23:35:09 38° ESE 23:38:01 10° ENE
Cosmos 2123 Rocket 4.4 23:29:06 10° N 23:35:13 50° ENE 23:38:13 28° SE
Lacrosse 5 2.2 23:34:48 32° S 23:36:24 41° SE 23:41:11 10° ENE
Cosmos 1356 3.7 23:36:13 46° ESE 23:36:27 47° E 23:39:53 10° NNE
IGS 5A 3.8 23:35:50 32° SSW 23:37:35 59° W 23:41:43 10° NNW
Meteor 1-19 Rocket 4.3 23:33:50 10° N 23:39:44 78° ENE 23:42:32 32° SSE
NOSS 3-1 (A) 4.0 23:34:30 10° NW 23:41:57 87° SW 23:46:47 28° SE
Okean 2 4.3 23:38:15 10° N 23:42:09 36° ENE 23:43:07 32° ESE
Cosmos 1025 Rocket 3.0 23:42:09 10° N 23:46:34 76° E 23:47:53 44° SSE
Cosmos 1346 Rocket 4.4 23:44:05 10° NNE 23:47:08 21° ENE 23:47:56 20° E
Timation 1 Rocket 4.5 23:41:29 10° SW 23:47:30 75° WNW 23:53:32 10° NNE
Iridium 4 Rocket 3.8 23:44:24 10° N 23:50:19 74° E 23:52:58 34° SSE
ASTEX 1 3.4 23:45:34 10° N 23:50:32 79° W 23:52:59 31° SSW
Cosmos 1633 2.8 23:52:16 50° ESE 23:52:27 50° E 23:56:04 10° NNE
Cosmos 1833 Rocket 4.3 23:48:28 10° NW 23:52:54 24° WSW 23:56:09 15° SW
Cosmos 1943 Rocket 3.7 23:54:42 19° ESE 23:54:56 19° E 23:58:48 10° NE
